EDT,Max TemperatureF,Mean TemperatureF,Min TemperatureF,Max Dew PointF,MeanDew PointF,Min DewpointF,Max Humidity, Mean Humidity, Min Humidity, Max Sea Level PressureIn, Mean Sea Level PressureIn, Min Sea Level PressureIn, Max VisibilityMiles, Mean VisibilityMiles, Min VisibilityMiles, Max Wind SpeedMPH, Mean Wind SpeedMPH, Max Gust SpeedMPH,PrecipitationIn, CloudCover, Events, WindDirDegrees
2011-10-1,57,44,32,37,31,27,87,63,38,30.37,30.30,30.23,10,10,10,12,5,,0.00,1,,8
2011-10-2,60,43,26,45,34,21,87,71,39,30.28,30.22,30.14,10,10,0,10,2,,0.00,0,,304
2011-10-3,66,52,37,46,41,34,87,69,43,30.27,30.23,30.19,10,10,6,10,5,,0.00,0,,352
2011-10-4,69,52,35,52,42,30,87,72,43,30.27,30.23,30.17,10,9,0,14,3,17,0.00,0,,224
2011-10-5,66,54,42,54,47,37,87,77,59,30.25,30.22,30.19,10,9,3,17,3,,0.00,0,,132
2011-10-6,62,50,39,54,46,36,93,80,68,30.28,30.25,30.22,10,8,0,9,3,,0.00,1,,139
2011-10-7,66,52,39,55,46,36,94,79,64,30.26,30.22,30.15,10,5,0,15,3,23,0.00,3,,179
2011-10-8,69,64,60,55,53,52,77,68,56,30.21,30.17,30.13,10,10,10,20,11,28,0.00,0,,196
2011-10-9,71,60,48,55,52,45,88,71,53,30.29,30.25,30.21,10,9,1,15,6,16,0.00,0,,196
2011-10-10,66,54,41,54,45,37,88,76,59,30.27,30.21,30.08,10,6,0,14,2,,0.00,3,,132
2011-10-11,68,58,48,55,53,45,88,75,64,30.05,30.00,29.92,10,10,7,10,5,,0.00,1,,161
2011-10-12,69,61,53,55,52,48,94,78,56,29.94,29.87,29.76,10,7,1,10,3,,0.05,5,,135
2011-10-13,59,57,55,52,51,48,88,82,72,29.73,29.59,29.44,10,9,5,14,8,17,0.06,5,,123
2011-10-14,55,50,44,50,42,36,88,73,54,29.39,29.34,29.30,10,10,9,25,12,34,0.33,8,,292
2011-10-15,53,48,42,37,33,28,81,63,38,29.56,29.44,29.36,10,10,7,29,18,38,0.14,7,,292
2011-10-16,57,46,35,34,28,21,75,52,26,29.67,29.60,29.50,10,10,10,29,10,39,0.00,2,,257
2011-10-17,53,48,42,30,27,21,53,45,38,29.65,29.55,29.51,10,10,10,23,13,30,0.00,6,,267
2011-10-18,50,46,41,34,32,28,66,60,46,29.94,29.80,29.70,10,10,10,13,8,21,0.00,7,,321
2011-10-19,51,43,35,36,33,28,81,68,50,29.97,29.95,29.90,10,10,10,17,8,28,0.00,6,,4
2011-10-20,44,43,42,34,32,30,70,64,57,29.81,29.66,29.59,10,10,10,22,16,36,0.00,8,,358
2011-10-21,48,45,42,34,30,28,66,57,46,30.00,29.94,29.80,10,10,10,13,9,21,0.00,6,,312
2011-10-22,55,42,28,37,31,23,86,69,47,30.04,29.99,29.96,10,10,5,10,2,,0.00,2,,30
2011-10-23,51,40,28,45,35,25,87,81,67,30.02,29.89,29.72,10,6,0,12,4,17,0.09,7,,210
2011-10-24,53,45,37,43,33,28,87,66,38,30.07,29.88,29.71,10,10,8,20,11,26,0.00,2,,291
2011-10-25,44,37,30,36,31,25,87,74,61,30.12,30.06,29.98,10,10,10,10,5,16,0.03,7,,15
2011-10-26,48,39,30,34,31,25,81,68,46,30.02,29.99,29.95,10,10,10,10,6,16,0.00,6,,356
2011-10-27,46,37,28,30,26,21,87,65,43,30.12,30.02,29.97,10,10,10,14,5,17,0.00,3,,337
2011-10-28,35,28,24,28,24,19,86,80,74,30.12,30.10,30.09,10,10,10,6,2,,0.00,5,,288
2011-10-29,48,37,26,34,29,21,86,72,50,30.08,30.02,29.97,10,10,5,10,3,,0.00,2,,258
2011-10-30,50,36,21,39,29,18,87,74,58,30.08,30.03,29.91,10,10,5,21,5,29,0.01,4,,145
2011-10-31,48,45,42,39,37,34,87,72,62,30.05,29.96,29.89,10,9,3,18,10,26,0.01,7,,196